Time,TemperatureF,DewpointF,PressureIn,WindDirection,WindDirectionDegrees,WindSpeedMPH,WindSpeedGustMPH,Humidity,HourlyPrecipIn,Conditions,Clouds,dailyrainin,SoftwareType,DateUTC
2013-02-09 00:00:00,43.6,38.0,29.96,NW,321,3.0,4.0,80,0.00,,,0.11,,2013-02-09 08:00:00,
2013-02-09 00:10:00,43.6,38.0,29.96,NW,321,4.0,5.0,80,0.00,,,0.00,,2013-02-09 08:10:00,
2013-02-09 00:20:00,43.8,38.0,29.95,NW,321,4.0,5.0,80,0.00,,,0.00,,2013-02-09 08:20:00,
2013-02-09 00:30:00,43.4,38.0,29.96,NW,321,2.0,3.0,81,0.00,,,0.00,,2013-02-09 08:30:00,
2013-02-09 00:40:00,43.1,38.0,29.96,NW,321,2.0,2.0,81,0.00,,,0.00,,2013-02-09 08:40:00,
2013-02-09 00:50:00,42.8,37.0,29.96,NW,321,2.0,3.0,81,0.00,,,0.00,,2013-02-09 08:50:00,
2013-02-09 01:00:00,42.5,37.0,29.96,NW,321,0.0,1.0,82,0.00,,,0.00,,2013-02-09 09:00:00,
2013-02-09 01:10:00,42.4,37.0,29.96,NW,321,3.0,4.0,82,0.00,,,0.00,,2013-02-09 09:10:00,
2013-02-09 01:20:00,42.4,37.0,29.96,NW,321,1.0,3.0,82,0.00,,,0.00,,2013-02-09 09:20:00,
2013-02-09 01:30:00,42.1,37.0,29.96,NW,321,0.0,1.0,82,0.00,,,0.00,,2013-02-09 09:30:00,
2013-02-09 01:40:00,42.0,37.0,29.96,NW,321,2.0,3.0,83,0.00,,,0.00,,2013-02-09 09:40:00,
2013-02-09 01:50:00,42.4,37.0,29.96,NW,321,1.0,1.0,82,0.00,,,0.00,,2013-02-09 09:50:00,
2013-02-09 02:00:00,42.4,38.0,29.96,NW,321,1.0,2.0,83,0.00,,,0.00,,2013-02-09 10:00:00,
2013-02-09 02:10:00,42.8,38.0,29.96,NW,321,2.0,2.0,82,0.00,,,0.00,,2013-02-09 10:10:00,
2013-02-09 02:20:00,43.0,38.0,29.96,NW,321,0.0,2.0,81,0.00,,,0.00,,2013-02-09 10:20:00,
2013-02-09 02:30:00,42.9,37.0,29.96,NW,321,2.0,2.0,81,0.00,,,0.00,,2013-02-09 10:30:00,
2013-02-09 02:40:00,43.2,37.0,29.96,NW,321,2.0,3.0,80,0.00,,,0.00,,2013-02-09 10:40:00,
2013-02-09 02:50:00,43.0,37.0,29.96,NW,321,2.0,3.0,80,0.00,,,0.00,,2013-02-09 10:50:00,
2013-02-09 03:00:00,43.0,37.0,29.96,NW,321,2.0,3.0,80,0.00,,,0.00,,2013-02-09 11:00:00,
2013-02-09 03:10:00,43.0,37.0,29.96,NW,321,1.0,2.0,80,0.00,,,0.00,,2013-02-09 11:10:00,
2013-02-09 03:20:00,42.8,37.0,29.96,NW,321,0.0,2.0,80,0.00,,,0.00,,2013-02-09 11:20:00,
2013-02-09 03:30:00,42.6,37.0,29.96,NW,321,2.0,2.0,80,0.00,,,0.00,,2013-02-09 11:30:00,
2013-02-09 03:40:00,42.2,37.0,29.96,NW,321,1.0,2.0,81,0.00,,,0.00,,2013-02-09 11:40:00,
2013-02-09 03:50:00,42.0,37.0,29.96,NW,321,0.0,0.0,81,0.00,,,0.00,,2013-02-09 11:50:00,
2013-02-09 04:00:00,40.9,35.0,29.97,NW,321,0.0,0.0,79,0.00,,,0.00,,2013-02-09 12:00:00,
2013-02-09 04:10:00,40.6,36.0,29.97,NW,321,2.0,2.0,82,0.00,,,0.00,,2013-02-09 12:10:00,
2013-02-09 04:20:00,40.7,36.0,29.97,NW,321,0.0,0.0,83,0.00,,,0.00,,2013-02-09 12:20:00,
2013-02-09 04:30:00,40.5,35.0,29.97,NW,321,1.0,2.0,81,0.00,,,0.00,,2013-02-09 12:30:00,
2013-02-09 04:40:00,41.1,36.0,29.96,NW,321,0.0,1.0,82,0.00,,,0.00,,2013-02-09 12:40:00,
2013-02-09 04:50:00,42.5,37.0,29.96,NW,321,1.0,3.0,82,0.00,,,0.00,,2013-02-09 12:50:00,
2013-02-09 05:00:00,43.3,38.0,29.96,NW,319,2.0,5.0,81,0.00,,,0.00,,2013-02-09 13:00:00,
2013-02-09 05:10:00,42.8,37.0,29.96,NW,319,0.0,2.0,80,0.00,,,0.00,,2013-02-09 13:10:00,
2013-02-09 05:20:00,42.1,37.0,29.96,NW,319,3.0,3.0,81,0.00,,,0.00,,2013-02-09 13:20:00,
2013-02-09 05:30:00,41.5,36.0,29.96,NW,319,1.0,2.0,80,0.00,,,0.00,,2013-02-09 13:30:00,
2013-02-09 05:40:00,40.7,35.0,29.96,NW,319,1.0,1.0,80,0.00,,,0.00,,2013-02-09 13:40:00,
2013-02-09 05:50:00,40.2,35.0,29.96,NW,319,0.0,0.0,80,0.00,,,0.00,,2013-02-09 13:50:00,
2013-02-09 06:00:00,40.0,35.0,29.96,NW,319,0.0,0.0,81,0.00,,,0.00,,2013-02-09 14:00:00,
2013-02-09 06:10:00,40.3,35.0,29.97,NW,319,0.0,0.0,80,0.00,,,0.00,,2013-02-09 14:10:00,
2013-02-09 06:20:00,41.0,35.0,29.97,NW,319,0.0,0.0,80,0.00,,,0.00,,2013-02-09 14:20:00,
2013-02-09 06:30:00,41.6,36.0,29.97,NW,319,0.0,0.0,80,0.00,,,0.00,,2013-02-09 14:30:00,
2013-02-09 06:40:00,41.8,36.0,29.97,NW,319,0.0,0.0,79,0.00,,,0.00,,2013-02-09 14:40:00,
2013-02-09 06:50:00,41.5,36.0,29.98,NW,319,0.0,0.0,82,0.00,,,0.00,,2013-02-09 14:50:00,
2013-02-09 07:00:00,40.5,34.0,29.98,NW,319,1.0,1.0,77,0.00,,,0.00,,2013-02-09 15:00:00,
2013-02-09 07:10:00,38.7,32.0,29.99,NW,319,4.0,4.0,78,0.00,,,0.00,,2013-02-09 15:10:00,
2013-02-09 07:20:00,39.5,33.0,29.98,NW,319,3.0,4.0,78,0.00,,,0.00,,2013-02-09 15:20:00,
2013-02-09 07:30:00,40.7,34.0,29.99,NW,319,4.0,4.0,76,0.00,,,0.00,,2013-02-09 15:30:00,
2013-02-09 07:40:00,40.7,33.0,29.99,NW,320,5.0,6.0,73,0.00,,,0.00,,2013-02-09 15:40:00,
2013-02-09 07:50:00,40.3,33.0,29.99,ESE,117,4.0,5.0,75,0.00,,,0.00,,2013-02-09 15:50:00,
2013-02-09 08:00:00,40.9,34.0,29.99,SE,142,5.0,5.0,76,0.00,,,0.00,,2013-02-09 16:00:00,
2013-02-09 08:10:00,41.6,36.0,30.00,SSE,154,5.0,5.0,79,0.00,,,0.00,,2013-02-09 16:10:00,
2013-02-09 08:20:00,42.6,36.0,30.00,SE,135,2.0,4.0,77,0.00,,,0.00,,2013-02-09 16:20:00,
2013-02-09 08:30:00,42.9,36.0,30.01,SSE,147,4.0,6.0,76,0.00,,,0.00,,2013-02-09 16:30:00,
2013-02-09 08:40:00,43.8,36.0,30.01,SE,138,4.0,5.0,74,0.00,,,0.00,,2013-02-09 16:40:00,
2013-02-09 08:50:00,44.7,37.0,30.01,SE,143,5.0,5.0,74,0.00,,,0.00,,2013-02-09 16:50:00,
2013-02-09 09:00:00,45.4,38.0,30.01,SE,144,3.0,5.0,74,0.00,,,0.00,,2013-02-09 17:00:00,
2013-02-09 09:10:00,46.1,38.0,30.02,SE,145,0.0,3.0,74,0.00,,,0.00,,2013-02-09 17:10:00,
2013-02-09 09:20:00,47.2,39.0,30.02,SE,146,2.0,3.0,74,0.00,,,0.00,,2013-02-09 17:20:00,
2013-02-09 09:30:00,48.1,41.0,30.02,SE,146,0.0,2.0,77,0.00,,,0.00,,2013-02-09 17:30:00,
2013-02-09 09:40:00,48.7,43.0,30.02,South,189,4.0,6.0,81,0.00,,,0.00,,2013-02-09 17:40:00,
2013-02-09 09:50:00,48.8,44.0,30.02,South,190,4.0,5.0,82,0.00,,,0.00,,2013-02-09 17:50:00,
2013-02-09 10:00:00,49.4,44.0,30.02,SSW,213,0.0,3.0,81,0.00,,,0.00,,2013-02-09 18:00:00,
2013-02-09 10:10:00,50.1,44.0,30.03,SSW,213,0.0,0.0,80,0.00,,,0.00,,2013-02-09 18:10:00,
2013-02-09 10:20:00,50.7,42.0,30.03,SSW,206,0.0,1.0,73,0.00,,,0.00,,2013-02-09 18:20:00,
2013-02-09 10:30:00,50.0,43.0,30.03,WSW,241,8.0,8.0,78,0.00,,,0.00,,2013-02-09 18:30:00,
2013-02-09 10:40:00,49.1,43.0,30.04,West,265,9.0,11.0,79,0.00,,,0.00,,2013-02-09 18:40:00,
2013-02-09 10:50:00,49.7,42.0,30.04,WSW,254,11.0,12.0,75,0.00,,,0.00,,2013-02-09 18:50:00,
2013-02-09 11:00:00,49.8,43.0,30.04,WSW,240,8.0,11.0,77,0.00,,,0.00,,2013-02-09 19:00:00,
2013-02-09 11:10:00,49.7,44.0,30.04,SW,229,10.0,12.0,82,0.00,,,0.00,,2013-02-09 19:10:00,
2013-02-09 11:20:00,50.3,42.0,30.04,SW,231,7.0,11.0,72,0.00,,,0.00,,2013-02-09 19:20:00,
2013-02-09 11:30:00,50.9,39.0,30.04,West,281,3.0,13.0,64,0.00,,,0.00,,2013-02-09 19:30:00,
2013-02-09 11:40:00,50.7,40.0,30.04,West,259,8.0,13.0,66,0.00,,,0.00,,2013-02-09 19:40:00,
2013-02-09 11:50:00,50.5,41.0,30.04,West,269,13.0,19.0,69,0.00,,,0.00,,2013-02-09 19:50:00,
2013-02-09 12:00:00,51.5,41.0,30.04,WNW,283,7.0,13.0,68,0.00,,,0.00,,2013-02-09 20:00:00,
2013-02-09 12:10:00,51.3,41.0,30.03,WNW,282,6.0,13.0,69,0.00,,,0.00,,2013-02-09 20:10:00,
2013-02-09 12:20:00,51.7,42.0,30.03,WSW,258,12.0,13.0,70,0.00,,,0.00,,2013-02-09 20:20:00,
2013-02-09 12:30:00,51.4,41.0,30.03,NW,313,9.0,14.0,68,0.00,,,0.00,,2013-02-09 20:30:00,
2013-02-09 12:40:00,51.3,41.0,30.02,WNW,298,12.0,15.0,68,0.00,,,0.00,,2013-02-09 20:40:00,
2013-02-09 12:50:00,51.9,42.0,30.02,WNW,302,10.0,13.0,68,0.00,,,0.00,,2013-02-09 20:50:00,
2013-02-09 13:00:00,51.2,41.0,30.02,WNW,300,18.0,18.0,67,0.00,,,0.00,,2013-02-09 21:00:00,
2013-02-09 13:10:00,51.6,43.0,30.02,West,281,10.0,21.0,71,0.00,,,0.00,,2013-02-09 21:10:00,
2013-02-09 13:20:00,51.2,42.0,30.02,West,274,14.0,18.0,70,0.00,,,0.00,,2013-02-09 21:20:00,
2013-02-09 13:30:00,51.7,43.0,30.01,WSW,250,9.0,17.0,73,0.00,,,0.00,,2013-02-09 21:30:00,
2013-02-09 13:40:00,51.5,43.0,30.01,NW,311,13.0,21.0,73,0.00,,,0.00,,2013-02-09 21:40:00,
2013-02-09 13:50:00,51.5,43.0,30.01,NW,319,10.0,19.0,73,0.00,,,0.00,,2013-02-09 21:50:00,
2013-02-09 14:00:00,51.7,43.0,30.01,WNW,297,16.0,19.0,73,0.00,,,0.00,,2013-02-09 22:00:00,
2013-02-09 14:10:00,51.7,44.0,30.01,WNW,284,16.0,16.0,76,0.00,,,0.00,,2013-02-09 22:10:00,
2013-02-09 14:20:00,51.1,43.0,30.01,NW,315,14.0,19.0,75,0.00,,,0.00,,2013-02-09 22:20:00,
2013-02-09 14:30:00,51.2,44.0,30.01,WNW,298,9.0,18.0,76,0.00,,,0.00,,2013-02-09 22:30:00,
2013-02-09 14:40:00,51.9,44.0,30.01,WNW,295,17.0,20.0,75,0.00,,,0.00,,2013-02-09 22:40:00,
2013-02-09 14:50:00,51.0,44.0,30.01,NW,312,18.0,20.0,76,0.00,,,0.00,,2013-02-09 22:50:00,
2013-02-09 15:00:00,51.5,45.0,30.01,NW,321,14.0,15.0,77,0.00,,,0.00,,2013-02-09 23:00:00,
2013-02-09 15:10:00,51.2,44.0,30.01,WNW,286,12.0,21.0,76,0.00,,,0.00,,2013-02-09 23:10:00,
2013-02-09 15:20:00,51.6,44.0,30.01,NW,308,11.0,18.0,76,0.00,,,0.00,,2013-02-09 23:20:00,
2013-02-09 15:30:00,51.2,44.0,30.01,NW,311,16.0,17.0,77,0.00,,,0.00,,2013-02-09 23:30:00,
2013-02-09 15:40:00,51.0,44.0,30.01,NW,321,16.0,20.0,77,0.00,,,0.00,,2013-02-09 23:40:00,
2013-02-09 15:50:00,50.8,44.0,30.00,NW,309,18.0,20.0,78,0.00,,,0.00,,2013-02-09 23:50:00,
2013-02-09 16:00:00,50.8,44.0,30.00,NW,315,16.0,17.0,78,0.00,,,0.00,,2013-02-10 00:00:00,
2013-02-09 16:10:00,50.7,44.0,30.00,NW,306,18.0,21.0,78,0.00,,,0.00,,2013-02-10 00:10:00,
2013-02-09 16:20:00,50.4,44.0,30.01,NW,310,17.0,17.0,78,0.00,,,0.00,,2013-02-10 00:20:00,
2013-02-09 16:30:00,50.2,44.0,30.01,WNW,286,11.0,15.0,79,0.00,,,0.00,,2013-02-10 00:30:00,
2013-02-09 16:40:00,50.1,44.0,30.00,NW,321,13.0,14.0,80,0.00,,,0.00,,2013-02-10 00:40:00,
2013-02-09 16:50:00,49.9,44.0,30.00,NW,310,11.0,16.0,79,0.00,,,0.00,,2013-02-10 00:50:00,
2013-02-09 17:00:00,49.6,43.0,30.01,WNW,302,16.0,16.0,79,0.00,,,0.00,,2013-02-10 01:00:00,
2013-02-09 17:10:00,49.3,43.0,30.00,NW,312,8.0,17.0,79,0.00,,,0.00,,2013-02-10 01:10:00,
2013-02-09 17:20:00,48.8,43.0,30.01,NNW,327,10.0,15.0,81,0.00,,,0.00,,2013-02-10 01:20:00,
2013-02-09 17:30:00,48.3,43.0,30.01,NNW,328,10.0,16.0,82,0.00,,,0.00,,2013-02-10 01:30:00,
2013-02-09 17:40:00,48.0,43.0,30.01,NW,311,12.0,12.0,84,0.00,,,0.00,,2013-02-10 01:40:00,
2013-02-09 17:50:00,47.8,44.0,30.01,WNW,302,11.0,11.0,85,0.00,,,0.00,,2013-02-10 01:50:00,
2013-02-09 18:00:00,47.6,44.0,30.01,NW,306,9.0,11.0,86,0.00,,,0.00,,2013-02-10 02:00:00,
2013-02-09 18:10:00,47.5,44.0,30.02,NW,305,8.0,11.0,87,0.00,,,0.00,,2013-02-10 02:10:00,
2013-02-09 18:20:00,47.3,44.0,30.02,NW,308,6.0,9.0,87,0.00,,,0.00,,2013-02-10 02:20:00,
2013-02-09 18:30:00,47.3,44.0,30.02,NW,326,8.0,10.0,87,0.00,,,0.00,,2013-02-10 02:30:00,
2013-02-09 18:40:00,47.2,44.0,30.02,NW,306,6.0,8.0,87,0.00,,,0.00,,2013-02-10 02:40:00,
2013-02-09 18:50:00,47.2,44.0,30.03,NW,310,6.0,9.0,87,0.00,,,0.00,,2013-02-10 02:50:00,
2013-02-09 19:00:00,47.2,44.0,30.03,NW,309,7.0,9.0,88,0.00,,,0.00,,2013-02-10 03:00:00,
2013-02-09 19:10:00,47.0,44.0,30.03,NW,311,7.0,9.0,88,0.00,,,0.00,,2013-02-10 03:10:00,
2013-02-09 19:20:00,46.8,43.0,30.03,NW,323,6.0,9.0,88,0.00,,,0.00,,2013-02-10 03:20:00,
2013-02-09 19:30:00,46.4,43.0,30.03,NNW,338,3.0,3.0,88,0.00,,,0.00,,2013-02-10 03:30:00,
2013-02-09 19:40:00,46.1,43.0,30.03,NNW,338,1.0,1.0,88,0.00,,,0.00,,2013-02-10 03:40:00,
2013-02-09 19:50:00,45.0,42.0,30.04,SE,143,2.0,4.0,89,0.00,,,0.00,,2013-02-10 03:50:00,
2013-02-09 20:00:00,45.2,42.0,30.04,SE,144,0.0,2.0,90,0.00,,,0.00,,2013-02-10 04:00:00,
2013-02-09 20:10:00,45.2,42.0,30.03,SE,144,0.0,0.0,90,0.00,,,0.00,,2013-02-10 04:10:00,
2013-02-09 20:20:00,45.3,43.0,30.03,SE,144,0.0,0.0,90,0.00,,,0.00,,2013-02-10 04:20:00,
2013-02-09 20:30:00,45.2,42.0,30.03,SE,144,0.0,0.0,89,0.00,,,0.00,,2013-02-10 04:30:00,
2013-02-09 20:40:00,44.4,42.0,30.04,SE,140,1.0,1.0,90,0.00,,,0.00,,2013-02-10 04:40:00,
2013-02-09 20:50:00,44.5,42.0,30.04,SE,140,0.0,0.0,90,0.00,,,0.00,,2013-02-10 04:50:00,
2013-02-09 21:00:00,44.2,41.0,30.04,ESE,114,4.0,4.0,90,0.00,,,0.00,,2013-02-10 05:00:00,
2013-02-09 21:10:00,43.6,41.0,30.05,ESE,114,1.0,3.0,91,0.00,,,0.00,,2013-02-10 05:10:00,
2013-02-09 21:20:00,43.8,41.0,30.05,ESE,116,0.0,2.0,91,0.00,,,0.00,,2013-02-10 05:20:00,
2013-02-09 21:30:00,43.7,41.0,30.05,ESE,116,0.0,2.0,90,0.00,,,0.00,,2013-02-10 05:30:00,
2013-02-09 21:40:00,43.6,41.0,30.05,ESE,116,1.0,2.0,91,0.00,,,0.00,,2013-02-10 05:40:00,
2013-02-09 21:50:00,43.4,41.0,30.06,ESE,106,3.0,4.0,91,0.00,,,0.00,,2013-02-10 05:50:00,
2013-02-09 22:00:00,42.8,40.0,30.06,ESE,105,0.0,1.0,91,0.00,,,0.00,,2013-02-10 06:00:00,
2013-02-09 22:10:00,42.7,41.0,30.06,SE,142,4.0,5.0,92,0.00,,,0.00,,2013-02-10 06:10:00,
2013-02-09 22:20:00,42.7,41.0,30.07,SSE,149,1.0,3.0,92,0.00,,,0.00,,2013-02-10 06:20:00,
2013-02-09 22:30:00,42.4,40.0,30.06,SSE,149,0.0,1.0,92,0.00,,,0.00,,2013-02-10 06:30:00,
2013-02-09 22:40:00,42.6,41.0,30.07,SSE,149,3.0,4.0,93,0.00,,,0.00,,2013-02-10 06:40:00,
2013-02-09 22:50:00,42.9,41.0,30.06,SE,146,4.0,4.0,92,0.00,,,0.00,,2013-02-10 06:50:00,
2013-02-09 23:00:00,43.0,41.0,30.06,SE,145,6.0,6.0,92,0.00,,,0.00,,2013-02-10 07:00:00,
2013-02-09 23:10:00,42.8,41.0,30.06,SSE,155,4.0,4.0,92,0.00,,,0.00,,2013-02-10 07:10:00,
2013-02-09 23:20:00,42.5,40.0,30.07,SSE,152,5.0,6.0,92,0.00,,,0.00,,2013-02-10 07:20:00,
2013-02-09 23:30:00,42.9,41.0,30.07,SSE,149,5.0,5.0,92,0.00,,,0.00,,2013-02-10 07:30:00,
2013-02-09 23:40:00,43.1,41.0,30.07,SE,138,6.0,6.0,92,0.00,,,0.00,,2013-02-10 07:40:00,
2013-02-09 23:50:00,43.4,41.0,30.07,SSE,148,5.0,6.0,91,0.00,,,0.00,,2013-02-10 07:50:00,